• Join FlightAware (Why Join?)
  • Login
  • US Flag GB Flag 
04:32 EST


 

Airport Tracker/Info


-or-


 

Live Flight TrackerFlight Track Log ✈ N27XP ✈ 11-May-2014 ✈ KTCL - KCTZ

Flight Track Log - Related Links

Times and Time Zones

All times are in EDT time to prevent confusion due to time zone crossing. See the N27XP flight status page for this flight to view local times or setup timezone preferences in your user account.

Time Position Orientation Groundspeed Altitude Reporting Facility
EDT Latitude Longitude Course Direction KTS MPH feet Rate Location/Type
11:17 33.2744 -87.5544 41° Northeast 213 245 3,300  Level Atlanta Center
11:17 33.3089 -87.5211 39° Northeast 227 261 4,600 1,800 Climbing Atlanta Center
11:18 33.3528 -87.4458 55° Northeast 246 283 6,600 2,460 Climbing Atlanta Center
11:19 33.3989 -87.3606 57° Northeast 279 321 9,600 2,520 Climbing Atlanta Center
11:20 33.4056 -87.2639 85° East 279 321 11,700 2,220 Climbing Atlanta Center
11:21 33.3978 -87.1639 95° East 288 331 14,100 2,160 Climbing Atlanta Center
11:22 33.3939 -87.0617 93° East 293 337 16,100 1,560 Climbing Atlanta Center
11:23 33.3925 -86.9497 91° East 313 360 17,300 1,200 Climbing Atlanta Center
11:24 33.4097 -86.8358 80° East 326 375 18,600 1,440 Climbing Atlanta Center
11:25 33.4228 -86.7169 82° East 347 399 20,200 1,500 Climbing Atlanta Center
11:26 33.4339 -86.5928 84° East 358 412 21,700 1,380 Climbing Atlanta Center
11:27 33.4467 -86.4686 83° East 369 425 23,000 1,440 Climbing Atlanta Center
11:28 33.4619 -86.3322 82° East 369 425 24,600 1,500 Climbing Atlanta Center
11:29 33.4811 -86.2006 80° East 379 436 26,000 1,200 Climbing Atlanta Center
11:30 33.5019 -86.0767 79° East 384 442 27,100 1,140 Climbing Atlanta Center
11:31 33.5250 -85.9450 78° East 390 449 28,300 1,200 Climbing Atlanta Center
11:32 33.5478 -85.8161 78° East 395 455 29,600 1,200 Climbing Atlanta Center
11:33 33.5703 -85.6842 78° East 397 457 30,700 1,140 Climbing Atlanta Center
11:34 33.5950 -85.5550 77° East 397 457 31,900 1,140 Climbing Atlanta Center
11:35 33.6175 -85.4258 78° East 391 450 33,000 1,020 Climbing Atlanta Center
11:36 33.6356 -85.2939 81° East 391 450 34,000 840 Climbing Atlanta Center
11:37 33.6556 -85.1769 78° East 396 456 34,700 480 Climbing Atlanta Center
11:38 33.6797 -85.0297 79° East 396 456 35,000 120 Climbing Atlanta Center
11:39 33.7036 -84.8853 79° East 403 464 35,000  Level Atlanta Center
11:40 33.7256 -84.7356 80° East 433 498 35,000  Level Atlanta Center
11:41 33.7514 -84.5858 78° East 454 522 35,000  Level Atlanta Center
11:42 33.7728 -84.4461 80° East 461 531 35,000  Level Atlanta Center
11:43 33.7981 -84.2939 79° East 466 536 35,000  Level Atlanta Center
11:44 33.8192 -84.1389 81° East 466 536 35,000  Level Atlanta Center
11:45 33.8444 -83.9864 79° East 466 536 35,000  Level Atlanta Center
11:46 33.8692 -83.8336 79° East 466 536 35,000  Level Atlanta Center
11:47 33.8939 -83.6833 79° East 466 536 35,000  Level Atlanta Center
11:48 33.9164 -83.5256 80° East 466 536 35,000  Level Atlanta Center
11:49 33.9406 -83.3753 79° East 466 536 35,000  Level Atlanta Center
11:51 34.0075 -83.0764 70° East 460 529 35,000  Level Atlanta Center
11:53 34.0819 -82.7772 75° East 460 529 35,000  Level Atlanta Center
11:54 34.1181 -82.6286 74° East 460 529 35,000  Level Atlanta Center
11:55 34.1536 -82.4775 74° East 460 529 35,000  Level Atlanta Center
11:56 34.1872 -82.3261 75° East 460 529 35,000  Level Atlanta Center
11:57 34.2225 -82.1747 74° East 460 529 35,000  Level Atlanta Center
11:58 34.2558 -82.0258 75° East 455 524 35,000  Level Atlanta Center
11:59 34.2928 -81.8739 74° East 455 524 35,000  Level Atlanta Center
12:01 34.3556 -81.6047 74° East 479 551 35,000  Level Jacksonville Center
12:02 34.3917 -81.4558 74° East 479 551 35,000  Level Jacksonville Center
12:03 34.4169 -81.3194 77° East 473 544 35,000  Level Jacksonville Center
12:04 34.4506 -81.1678 75° East 465 535 35,000 -240 Level Jacksonville Center
12:05 34.4897 -80.9981 74° East 465 535 34,600 -780 Descending Jacksonville Center
12:06 34.5231 -80.8489 75° East 465 535 33,500 -1,020 Descending Jacksonville Center
12:07 34.5481 -80.7247 76° East 465 535 32,600 -1,380 Descending Jacksonville Center
12:08 34.5947 -80.5444 72° East 465 535 30,800 -1,680 Descending Jacksonville Center
12:09 34.6272 -80.3922 75° East 465 535 29,300 -780 Descending Jacksonville Center
12:11 34.6736 -80.1403 77° East 461 531 28,800 -900 Descending Washington Center
12:12 34.7031 -79.9700 78° East 466 536 27,000 -2,040 Descending Washington Center
12:13 34.7294 -79.8147 78° East 466 536 24,800 -2,340 Descending Washington Center
12:14 34.7578 -79.6569 78° East 466 536 22,300 -2,460 Descending Washington Center
12:15 34.7672 -79.5058 86° East 466 536 19,800 -2,340 Descending Washington Center
12:16 34.7733 -79.3744 87° East 446 513 17,700 -2,220 Descending Washington Center
12:17 34.7825 -79.2181 86° East 423 487 15,500 -2,040 Descending Washington Center
12:18 34.7906 -79.0869 86° East 409 471 13,600 -1,740 Descending Washington Center
12:19 34.7981 -78.9661 86° East 376 433 12,100 -1,920 Descending Washington Center
12:20 34.8056 -78.8525 85° East 339 390 9,900 -2,040 Descending Washington Center
12:21 34.8250 -78.7494 77° East 322 371 8,200 -1,860 Descending Washington Center
12:22 34.8442 -78.6517 77° East 303 349 6,200 -2,040 Descending Washington Center
12:23 34.8797 -78.5642 64° Northeast 289 333 4,100 -1,800 Descending Washington Center
12:24 34.9047 -78.4792 70° East 276 318 2,700 -1,260 Descending Washington Center
12:25 34.9397 -78.4194 54° Northeast 241 277 1,700 -1,020 Descending Washington Center